Weather History for Logan, UT

Change the Weather History Date:

Saturday, December 7, 2013

  Actual Average Record
Temperature  
Mean Temperature 10 °F -  
Max Temperature 19 °F 37 °F 57 °F (1958)
Min Temperature 0 °F 18 °F -8 °F (2005)
Degree Days  
Heating Degree Days 56    
Moisture  
Dew Point 11 °F    
Average Humidity 82    
Maximum Humidity 89    
Minimum Humidity 71    
Precipitation  
Precipitation 0.03 in - - ()
Sea Level Pressure  
Sea Level Pressure 29.82 in    
Wind  
Wind Speed 4 mph (NNW)    
Max Wind Speed 16 mph    
Max Gust Speed -    
Visibility 4 miles    
Events Snow    
Averages and records for this station are not official NWS values.
T = Trace of Precipitation, MM = Missing Value Source: NWS Daily Summary

Daily Weather History Graph

Daily Weather History Graph

Search for Another Location

Airport:

Trip Planner

Search our weather history database for the weather conditions in past years. The results will help you decide how hot, cold, wet, or windy it might be!

Date:

Astronomy

Dec. 07, 2013 Rise Set
Actual Time 7:41 AM MST 4:56 PM MST
Civil Twilight 7:10 AM MST 5:27 PM MST
Nautical Twilight 6:35 AM MST 6:02 PM MST
Astronomical Twilight 6:01 AM MST 6:36 PM MST
Moon 11:25 AM MST (12/7) 10:46 PM MST (12/7)
Length of Visible Light 10h 17m
Length of Day
9h 15m
Waxing Crescent, 30% of the Moon is Illuminated
Dec 7
Waxing Crescent
Dec 9
First Quarter
Dec 17
Full
Dec 25
Last Quarter
Jan 1
New

Hourly Weather History & Observations

Time (MST) Temp. Windchill Dew Point Humidity Pressure Visibility Wind Dir Wind Speed Gust Speed Precip Events Conditions
12:51 AM 1.9 °F - -2.0 °F 83% 30.12 in 6.0 mi Calm Calm - N/A   Clear
1:51 AM 1.0 °F - -2.9 °F 83% 30.09 in 10.0 mi Calm Calm - N/A   Clear
2:51 AM 1.0 °F - -4.0 °F 79% 30.06 in 10.0 mi Calm Calm - N/A   Clear
3:51 AM -0.0 °F - -4.0 °F 83% 30.02 in 10.0 mi Calm Calm - N/A   Clear
4:51 AM 1.0 °F - -4.0 °F 79% 29.99 in 10.0 mi Calm Calm - N/A   Clear
5:51 AM 3.9 °F -3.4 °F -0.0 °F 84% 29.99 in 10.0 mi East 3.5 mph - N/A   Overcast
6:51 AM 6.1 °F -2.8 °F 3.0 °F 87% 29.96 in 10.0 mi West 4.6 mph - N/A   Overcast
7:51 AM 7.0 °F 0.1 °F 3.0 °F 84% 29.94 in 10.0 mi NW 3.5 mph - N/A   Overcast
8:51 AM 9.0 °F - 5.0 °F 84% 29.91 in 10.0 mi Calm Calm - N/A   Overcast
9:51 AM 14.0 °F 8.2 °F 6.1 °F 71% 29.92 in 10.0 mi NE 3.5 mph - N/A   Overcast
10:44 AM 16.0 °F 7.4 °F 9.0 °F 74% 29.73 in 4.0 mi NW 5.8 mph - 0.00 in Snow Light Snow
10:51 AM 16.0 °F 7.4 °F 9.0 °F 74% 29.90 in 3.0 mi NW 5.8 mph - 0.00 in Snow Light Snow
10:56 AM 17.1 °F 10.0 °F 10.0 °F 74% 29.73 in 2.5 mi NNW 4.6 mph - 0.00 in Snow Light Snow
11:03 AM 17.1 °F 7.6 °F 10.0 °F 74% 29.72 in 3.0 mi NNW 6.9 mph - 0.00 in Snow Light Snow
11:16 AM 16.0 °F 7.4 °F 10.0 °F 77% 29.72 in 4.0 mi North 5.8 mph - 0.00 in Snow Light Snow
11:51 AM 17.1 °F 8.7 °F 10.9 °F 77% 29.86 in 4.0 mi North 5.8 mph - 0.00 in Snow Light Snow
12:51 PM 19.0 °F 10.0 °F 12.9 °F 77% 29.84 in 7.0 mi NNE 6.9 mph - 0.00 in   Overcast
1:06 PM 19.0 °F 10.0 °F 12.9 °F 77% 29.66 in 2.5 mi North 6.9 mph - 0.00 in Snow Light Snow
1:15 PM 19.0 °F 11.1 °F 12.9 °F 77% 29.66 in 1.8 mi North 5.8 mph - 0.00 in Snow Light Snow
1:26 PM 19.0 °F 11.1 °F 14.0 °F 81% 29.66 in 2.5 mi North 5.8 mph - 0.00 in Snow Light Snow
1:34 PM 19.9 °F 12.1 °F 14.0 °F 78% 29.65 in 3.0 mi North 5.8 mph - 0.00 in Snow Light Snow
1:51 PM 19.0 °F 12.3 °F 14.0 °F 81% 29.82 in 4.0 mi North 4.6 mph - 0.00 in Snow Light Snow
2:39 PM 19.0 °F 13.9 °F 14.0 °F 81% 29.65 in 2.5 mi North 3.5 mph - 0.00 in Snow Light Snow
2:51 PM 19.9 °F 13.4 °F 15.1 °F 81% 29.81 in 2.0 mi North 4.6 mph - 0.00 in Snow Light Snow
3:35 PM 19.9 °F 13.4 °F 15.1 °F 81% 29.66 in 1.8 mi North 4.6 mph - 0.00 in Snow Light Snow
3:51 PM 19.9 °F 12.1 °F 15.1 °F 81% 29.83 in 1.8 mi North 5.8 mph - 0.00 in Snow Light Snow
4:04 PM 19.9 °F 12.1 °F 15.1 °F 81% 29.66 in 2.0 mi North 5.8 mph - 0.00 in Snow Light Snow
4:13 PM 19.9 °F 13.4 °F 15.1 °F 81% 29.66 in 1.8 mi North 4.6 mph - 0.00 in Snow Light Snow
4:51 PM 19.0 °F 12.3 °F 16.0 °F 88% 29.86 in 1.2 mi North 4.6 mph - 0.00 in Snow Light Snow
5:08 PM 19.0 °F 12.3 °F 16.0 °F 88% 29.68 in 2.5 mi North 4.6 mph - 0.00 in Snow Light Snow
5:14 PM 19.0 °F 12.3 °F 16.0 °F 88% 29.69 in 4.0 mi North 4.6 mph - 0.00 in Snow Light Snow
5:37 PM 19.0 °F 13.9 °F 16.0 °F 88% 29.69 in 2.5 mi NNW 3.5 mph - 0.00 in Snow Light Snow
5:51 PM 19.0 °F 13.9 °F 16.0 °F 88% 29.86 in 2.5 mi NW 3.5 mph - 0.00 in Snow Light Snow
6:04 PM 19.0 °F 12.3 °F 16.0 °F 88% 29.70 in 1.8 mi NW 4.6 mph - 0.00 in Snow Light Snow
6:46 PM 19.9 °F - 17.1 °F 89% 29.72 in 1.2 mi Calm Calm - 0.01 in Snow Light Snow
6:51 PM 19.0 °F - 16.0 °F 88% 29.88 in 1.5 mi Calm Calm - 0.02 in Snow Light Snow
7:05 PM 19.0 °F - 16.0 °F 88% 29.73 in 1.8 mi Calm Calm - 0.00 in Snow Light Snow
7:24 PM 19.0 °F 12.3 °F 16.0 °F 88% 29.74 in 2.5 mi West 4.6 mph - 0.00 in Snow Light Snow
7:32 PM 19.0 °F 12.3 °F 16.0 °F 88% 29.74 in 3.0 mi WNW 4.6 mph - 0.00 in Snow Light Snow
7:51 PM 19.0 °F 12.3 °F 16.0 °F 88% 29.91 in 4.0 mi West 4.6 mph - 0.00 in Snow Light Snow
8:00 PM 19.0 °F 13.9 °F 16.0 °F 88% 29.75 in 2.0 mi NW 3.5 mph - 0.00 in Snow Light Snow
8:06 PM 19.0 °F 12.3 °F 16.0 °F 88% 29.76 in 1.8 mi NNW 4.6 mph - 0.00 in Snow Light Snow
8:28 PM 19.0 °F 12.3 °F 16.0 °F 88% 29.77 in 1.0 mi North 4.6 mph - 0.01 in Snow Light Snow
8:36 PM 19.0 °F - 16.0 °F 88% 29.77 in 1.8 mi Calm Calm - 0.01 in Snow Light Snow
8:39 PM 19.0 °F 12.3 °F 16.0 °F 88% 29.77 in 3.0 mi Variable 4.6 mph - 0.01 in Snow Light Snow
8:51 PM 19.9 °F 5.7 °F 14.0 °F 78% 29.92 in 4.0 mi North 16.1 mph - 0.01 in Snow Light Snow
8:58 PM 19.0 °F 6.8 °F 12.9 °F 77% 29.78 in 4.0 mi North 11.5 mph - 0.00 in Snow Light Snow
9:51 PM 18.0 °F 3.1 °F 10.9 °F 74% 29.94 in 6.0 mi North 16.1 mph - 0.00 in Snow Light Snow
10:36 PM 17.1 °F 4.3 °F 10.0 °F 74% 29.83 in 3.0 mi North 11.5 mph - 0.00 in Snow Light Snow
10:44 PM 17.1 °F 5.8 °F 10.9 °F 77% 29.83 in 2.5 mi North 9.2 mph - 0.00 in Snow Light Snow
10:51 PM 16.0 °F 4.4 °F 10.9 °F 81% 29.98 in 2.0 mi North 9.2 mph - 0.00 in Snow Light Snow
11:00 PM 16.0 °F 5.3 °F 10.9 °F 81% 29.84 in 4.0 mi North 8.1 mph - 0.00 in Snow Light Snow
11:51 PM 16.0 °F 1.1 °F 10.9 °F 81% 29.98 in 2.5 mi North 15.0 mph - 0.00 in Snow Light Snow
11:58 PM 15.1 °F -0.1 °F 10.0 °F 80% 29.85 in 4.0 mi North 15.0 mph - 0.00 in Snow Light Snow